Regional Weather Roundup
Issued by NWS Little Rock, AR

Home | Current Version | Previous Version | Text Only | Print | Product List | Glossary Off
Versions: 1 2 3 4 5 6 7 8 9 10 11 12 13 14 15 16 17 18 19 20 21 22 23 24 25 26 27 28 29 30 31 32 33 34 35 36 37 38 39 40 41 42 43 44 45 46 47 48 49 50

000
ASUS44 KLZK 290405
RWRLZK

WEATHER ROUNDUP FOR ARKANSAS
NATIONAL WEATHER SERVICE LITTLE ROCK AR
1100 PM CDT MON JUL 28 2014

NOTE: "FAIR" INDICATES FEW OR NO CLOUDS BELOW 12,000 FEET WITH NO
SIGNIFICANT WEATHER AND/OR OBSTRUCTIONS TO VISIBILITY.

ARZ001-003-010-029-290500-
NORTHWEST ARKANSAS

CITY           SKY/WX    TMP DP  RH WIND       PRES   REMARKS
FAYETTEVILLE   CLEAR     65  60  84 CALM      30.16R
FORT SMITH     CLEAR     77  61  57 N6        30.10S
HARRISON       CLEAR     69  57  65 NW3       30.15S
BENTONVILLE    CLEAR     72  55  56 NE7       30.17R
ROGERS         CLEAR     67  57  70 NE6       30.17S
SILOAM SPGS    CLEAR     70  54  56 NE3       30.17R
HIGHFILL       CLEAR     69  58  67 CALM      30.16R
$$

ARZ004-005-016-290500-
NORTH CENTRAL ARKANSAS

CITY           SKY/WX    TMP DP  RH WIND       PRES   REMARKS
BATESVILLE     MOCLDY    72  64  78 NW5       30.08S
FLIPPIN        CLEAR     73  57  56 N5        30.13R
MTN HOME       CLEAR     71  57  61 CALM      30.12R
$$

ARZ040-041-290500-
WEST CENTRAL ARKANSAS

CITY           SKY/WX    TMP DP  RH WIND       PRES   REMARKS
MENA           CLEAR     68  64  88 CALM      30.13S
MOUNT IDA      CLEAR     68  66  93 W3        30.08F
$$

ARZ009-017-025-026-028-290500-
NORTHEAST ARKANSAS

CITY           SKY/WX    TMP DP  RH WIND       PRES   REMARKS
CORNING        CLOUDY    73  64  73 NE8       30.10R
JONESBORO      MOCLDY    74  65  73 NE8       30.07R
NEWPORT        PTCLDY    72  67  84 N6        30.08S
WALNUT RIDGE   MOCLDY    73  64  73 N3        30.08S
BLYTHEVILLE    MOCLDY    73  67  81 NE5       30.07S
$$

ARZ022-023-033-042-044-290500-
CENTRAL ARKANSAS

CITY           SKY/WX    TMP DP  RH WIND       PRES   REMARKS
LITTLE ROCK    CLEAR     74  65  73 CALM      30.07F
N LITTLE ROCK  CLEAR     72  65  79 CALM      30.07F
JACKSONVILLE   PTCLDY    71  67  87 W2        30.07F
SEARCY         CLEAR     70  67  90 CALM      30.08F
HOT SPRINGS    CLEAR     72  67  84 S3        30.09F
RUSSELLVILLE   CLEAR     69  65  86 CALM      30.09S
CLINTON        FAIR      68  66  94 CALM      30.11R
$$

ARZ036-290500-
EAST ARKANSAS

CITY           SKY/WX    TMP DP  RH WIND       PRES   REMARKS
WEST MEMPHIS   CLOUDY    72  67  84 CALM      30.04F
$$

ARZ050-053-066-070-073-290500-
SOUTHWEST ARKANSAS

CITY           SKY/WX    TMP DP  RH WIND       PRES   REMARKS
ARKADELPHIA    FAIR      73  72  97 CALM      30.08R
CAMDEN         CLEAR     72  66  83 CALM      30.07S
TEXARKANA      CLEAR     73  67  81 CALM      30.08S
EL DORADO      CLEAR     73  69  87 CALM      30.07S
DE QUEEN       CLEAR     71  67  87 CALM      30.08S
$$

ARZ056-057-069-290500-
SOUTHEAST ARKANSAS

CITY           SKY/WX    TMP DP  RH WIND       PRES   REMARKS
PINE BLUFF     CLEAR     71  67  87 CALM      30.06F
STUTTGART      CLEAR     73  66  78 SW5       30.07F
MONTICELLO     PTCLDY    70  67  90 CALM      30.07S

$$





USA.gov is the U.S. government's official web portal to all federal, state and local government web resources and services.